Location: Killam
(52.7910°N, 111.8608°W)
Time: 04:07:17
(UTC+00:00)

Tiangong - Visible Passes

Search period start: 10 June 2023 00:00
Search period end: 20 June 2023 00:00
Orbit: 386 x 390 km, 41.5° (Epoch: 09 June)

Date Brightness Start Highest point End Pass type
(mag) Time Alt. Az. Time Alt. Az. Time Alt. Az.
10 Jun 0.1 09:29:16 11° S 09:29:16 11° S 09:30:11 10° SSE visible
18 Jun 0.1 04:52:18 10° S 04:52:50 10° S 04:53:22 10° SSE visible
19 Jun 0.1 05:29:06 10° SSW 05:30:07 11° S 05:30:07 11° S visible
